owner,sensor,date,latitude,longitude,vertical_datum,sea_water_temperature,qcFlag
Shell,ioos:station:wmo:42864:1,2020-06-01T00:07:00Z,21.2465,-93.4117,9.3,28.5,11111222
Shell,ioos:station:wmo:42864:1,2020-06-01T00:17:00Z,21.2465,-93.4117,9.4,28.5,11111222
Shell,ioos:station:wmo:42864:1,2020-06-01T00:27:00Z,21.2465,-93.4117,9.4,28.5,11111222
Shell,ioos:station:wmo:42864:1,2020-06-01T00:37:00Z,21.2465,-93.4117,9.4,28.5,11111222
Shell,ioos:station:wmo:42864:1,2020-06-01T00:47:00Z,21.2465,-93.4117,9.4,28.5,11111222
Shell,ioos:station:wmo:42864:1,2020-06-01T00:57:00Z,21.2465,-93.4117,9.4,28.5,11111222
Shell,ioos:station:wmo:42864:1,2020-06-01T01:07:00Z,21.2465,-93.4117,9.4,28.5,11111222
Shell,ioos:station:wmo:42864:1,2020-06-01T01:17:00Z,21.2465,-93.4117,9.4,28.6,11111222
Shell,ioos:station:wmo:42864:1,2020-06-01T01:27:00Z,21.2465,-93.4117,9.3,28.6,11111222
Shell,ioos:station:wmo:42864:1,2020-06-01T01:37:00Z,21.2465,-93.4117,9.3,28.6,11111222
Shell,ioos:station:wmo:42864:1,2020-06-01T01:47:00Z,21.2465,-93.4117,9.3,28.5,11111222
Shell,ioos:station:wmo:42864:1,2020-06-01T01:57:00Z,21.2465,-93.4117,9.3,28.6,11111222
Shell,ioos:station:wmo:42864:1,2020-06-01T02:07:00Z,21.2465,-93.4117,9.4,28.5,11111222
Shell,ioos:station:wmo:42864:1,2020-06-01T02:17:00Z,21.2465,-93.4117,9.4,28.5,11111222
Shell,ioos:station:wmo:42864:1,2020-06-01T02:27:00Z,21.2465,-93.4117,9.5,28.5,11111222
Shell,ioos:station:wmo:42864:1,2020-06-01T02:37:00Z,21.2465,-93.4117,9.4,28.5,11111222
Shell,ioos:station:wmo:42864:1,2020-06-01T02:47:00Z,21.2465,-93.4117,9.4,28.5,11111222
Shell,ioos:station:wmo:42864:1,2020-06-01T02:57:00Z,21.2465,-93.4117,9.3,28.5,11111222
Shell,ioos:station:wmo:42864:1,2020-06-01T03:07:00Z,21.2465,-93.4117,9.3,28.5,11111222
Shell,ioos:station:wmo:42864:1,2020-06-01T03:18:00Z,21.2465,-93.4117,9.2,28.5,11111222
Shell,ioos:station:wmo:42864:1,2020-06-01T03:28:00Z,21.2465,-93.4117,9.2,28.5,11111222
Shell,ioos:station:wmo:42864:1,2020-06-01T03:38:00Z,21.2465,-93.4117,9.2,28.5,11111222
Shell,ioos:station:wmo:42864:1,2020-06-01T03:48:00Z,21.2465,-93.4117,9.2,28.5,11111222
Shell,ioos:station:wmo:42864:1,2020-06-01T03:58:00Z,21.2465,-93.4117,9.2,28.5,11111222
Shell,ioos:station:wmo:42864:1,2020-06-01T04:08:00Z,21.2465,-93.4117,9.2,28.5,11111222
Shell,ioos:station:wmo:42864:1,2020-06-01T04:18:00Z,21.2465,-93.4117,9.1,28.5,11111222
Shell,ioos:station:wmo:42864:1,2020-06-01T04:28:00Z,21.2465,-93.4117,9.1,28.5,11111222
Shell,ioos:station:wmo:42864:1,2020-06-01T04:38:00Z,21.2465,-93.4117,9.1,28.4,11111222
Shell,ioos:station:wmo:42864:1,2020-06-01T04:48:00Z,21.2465,-93.4117,9.1,28.4,11111222
Shell,ioos:station:wmo:42864:1,2020-06-01T04:58:00Z,21.2465,-93.4117,9.1,28.4,11111222
Shell,ioos:station:wmo:42864:1,2020-06-01T05:08:00Z,21.2465,-93.4117,9.1,28.4,11111222
Shell,ioos:station:wmo:42864:1,2020-06-01T05:18:00Z,21.2465,-93.4117,9.1,28.4,11111222
Shell,ioos:station:wmo:42864:1,2020-06-01T05:28:00Z,21.2465,-93.4117,9.2,28.4,11111222
Shell,ioos:station:wmo:42864:1,2020-06-01T05:38:00Z,21.2465,-93.4117,9.1,28.4,11111222
Shell,ioos:station:wmo:42864:1,2020-06-01T05:48:00Z,21.2465,-93.4117,9.1,28.4,11111222
Shell,ioos:station:wmo:42864:1,2020-06-01T05:58:00Z,21.2465,-93.4117,9.0,28.3,11111222
Shell,ioos:station:wmo:42864:1,2020-06-01T06:08:00Z,21.2465,-93.4117,9.0,28.4,11111222
Shell,ioos:station:wmo:42864:1,2020-06-01T06:18:00Z,21.2465,-93.4117,9.1,28.4,11111222
Shell,ioos:station:wmo:42864:1,2020-06-01T06:28:00Z,21.2465,-93.4117,9.1,28.4,11111222
Shell,ioos:station:wmo:42864:1,2020-06-01T06:38:00Z,21.2465,-93.4117,9.2,28.3,11111222
Shell,ioos:station:wmo:42864:1,2020-06-01T06:48:00Z,21.2465,-93.4117,9.1,28.3,11111222
Shell,ioos:station:wmo:42864:1,2020-06-01T06:58:00Z,21.2465,-93.4117,9.1,28.3,11111222
Shell,ioos:station:wmo:42864:1,2020-06-01T07:08:00Z,21.2465,-93.4117,9.1,28.3,11111222
Shell,ioos:station:wmo:42864:1,2020-06-01T07:18:00Z,21.2465,-93.4117,9.2,28.3,11111222
Shell,ioos:station:wmo:42864:1,2020-06-01T07:28:00Z,21.2465,-93.4117,9.1,28.3,11111222
Shell,ioos:station:wmo:42864:1,2020-06-01T07:38:00Z,21.2465,-93.4117,9.1,28.3,11111222
Shell,ioos:station:wmo:42864:1,2020-06-01T07:48:00Z,21.2465,-93.4117,9.1,28.3,11111222
Shell,ioos:station:wmo:42864:1,2020-06-01T07:58:00Z,21.2465,-93.4117,9.1,28.3,11111222
Shell,ioos:station:wmo:42864:1,2020-06-01T08:08:00Z,21.2465,-93.4117,9.2,28.3,11111222
Shell,ioos:station:wmo:42864:1,2020-06-01T08:18:00Z,21.2465,-93.4117,9.2,28.3,11111222
Shell,ioos:station:wmo:42864:1,2020-06-01T08:28:00Z,21.2465,-93.4117,9.2,28.3,11111222
Shell,ioos:station:wmo:42864:1,2020-06-01T08:38:00Z,21.2465,-93.4117,9.2,28.3,11111222
Shell,ioos:station:wmo:42864:1,2020-06-01T08:48:00Z,21.2465,-93.4117,9.2,28.3,11111222
Shell,ioos:station:wmo:42864:1,2020-06-01T08:58:00Z,21.2465,-93.4117,9.2,28.3,11111222
Shell,ioos:station:wmo:42864:1,2020-06-01T09:08:00Z,21.2465,-93.4117,9.2,28.3,11111222
Shell,ioos:station:wmo:42864:1,2020-06-01T09:18:00Z,21.2465,-93.4117,9.3,28.3,11111222
Shell,ioos:station:wmo:42864:1,2020-06-01T09:28:00Z,21.2465,-93.4117,9.3,28.3,11111222
Shell,ioos:station:wmo:42864:1,2020-06-01T09:38:00Z,21.2465,-93.4117,9.2,28.3,11111222
Shell,ioos:station:wmo:42864:1,2020-06-01T09:48:00Z,21.2465,-93.4117,9.2,28.3,11111222
Shell,ioos:station:wmo:42864:1,2020-06-01T09:58:00Z,21.2465,-93.4117,9.2,28.3,11111222
Shell,ioos:station:wmo:42864:1,2020-06-01T10:08:00Z,21.2465,-93.4117,9.2,28.3,11111222
Shell,ioos:station:wmo:42864:1,2020-06-01T10:18:00Z,21.2465,-93.4117,9.3,28.3,11111222
Shell,ioos:station:wmo:42864:1,2020-06-01T10:28:00Z,21.2465,-93.4117,9.3,28.3,11111222
Shell,ioos:station:wmo:42864:1,2020-06-01T10:39:00Z,21.2465,-93.4117,9.3,28.3,11111222
Shell,ioos:station:wmo:42864:1,2020-06-01T10:49:00Z,21.2465,-93.4117,9.3,28.3,11111222
Shell,ioos:station:wmo:42864:1,2020-06-01T10:59:00Z,21.2465,-93.4117,9.3,28.3,11111222
Shell,ioos:station:wmo:42864:1,2020-06-01T11:09:00Z,21.2465,-93.4117,9.2,28.3,11111222
Shell,ioos:station:wmo:42864:1,2020-06-01T11:19:00Z,21.2465,-93.4117,9.2,28.3,11111222
Shell,ioos:station:wmo:42864:1,2020-06-01T11:29:00Z,21.2465,-93.4117,9.2,28.3,11111222
Shell,ioos:station:wmo:42864:1,2020-06-01T11:39:00Z,21.2465,-93.4117,9.1,28.3,11111222
Shell,ioos:station:wmo:42864:1,2020-06-01T11:49:00Z,21.2465,-93.4117,9.1,28.3,11111222
Shell,ioos:station:wmo:42864:1,2020-06-01T11:59:00Z,21.2465,-93.4117,9.1,28.3,11111222
Shell,ioos:station:wmo:42864:1,2020-06-01T12:09:00Z,21.2465,-93.4117,9.1,28.3,11111222
Shell,ioos:station:wmo:42864:1,2020-06-01T12:19:00Z,21.2465,-93.4117,9.1,28.3,11111222
Shell,ioos:station:wmo:42864:1,2020-06-01T12:29:00Z,21.2465,-93.4117,9.2,28.3,11111222
Shell,ioos:station:wmo:42864:1,2020-06-01T12:39:00Z,21.2465,-93.4117,9.2,28.3,11111222
Shell,ioos:station:wmo:42864:1,2020-06-01T12:49:00Z,21.2465,-93.4117,9.3,28.3,11111222
Shell,ioos:station:wmo:42864:1,2020-06-01T12:59:00Z,21.2465,-93.4117,9.2,28.3,11111222
Shell,ioos:station:wmo:42864:1,2020-06-01T13:09:00Z,21.2465,-93.4117,9.2,28.3,11111222
Shell,ioos:station:wmo:42864:1,2020-06-01T13:19:00Z,21.2465,-93.4117,9.3,28.3,11111222
Shell,ioos:station:wmo:42864:1,2020-06-01T13:29:00Z,21.2465,-93.4117,9.3,28.3,11111222
Shell,ioos:station:wmo:42864:1,2020-06-01T13:39:00Z,21.2465,-93.4117,9.3,28.3,11111222
Shell,ioos:station:wmo:42864:1,2020-06-01T13:49:00Z,21.2465,-93.4117,9.4,28.3,11111222
Shell,ioos:station:wmo:42864:1,2020-06-01T13:59:00Z,21.2465,-93.4117,9.4,28.3,11111222
Shell,ioos:station:wmo:42864:1,2020-06-01T14:09:00Z,21.2465,-93.4117,9.4,28.3,11111222
Shell,ioos:station:wmo:42864:1,2020-06-01T14:19:00Z,21.2465,-93.4117,9.3,28.3,11111222
Shell,ioos:station:wmo:42864:1,2020-06-01T14:29:00Z,21.2465,-93.4117,9.2,28.4,11111222
Shell,ioos:station:wmo:42864:1,2020-06-01T14:39:00Z,21.2465,-93.4117,9.4,28.4,11111222
Shell,ioos:station:wmo:42864:1,2020-06-01T14:49:00Z,21.2465,-93.4117,9.3,28.3,11111222
Shell,ioos:station:wmo:42864:1,2020-06-01T14:59:00Z,21.2465,-93.4117,9.3,28.3,11111222
Shell,ioos:station:wmo:42864:1,2020-06-01T15:09:00Z,21.2465,-93.4117,9.5,28.4,11111222
Shell,ioos:station:wmo:42864:1,2020-06-01T15:19:00Z,21.2465,-93.4117,9.5,28.4,11111222
Shell,ioos:station:wmo:42864:1,2020-06-01T15:29:00Z,21.2465,-93.4117,9.5,28.4,11111222
Shell,ioos:station:wmo:42864:1,2020-06-01T15:39:00Z,21.2465,-93.4117,9.4,28.4,11111222
Shell,ioos:station:wmo:42864:1,2020-06-01T15:49:00Z,21.2465,-93.4117,9.4,28.4,11111222
Shell,ioos:station:wmo:42864:1,2020-06-01T15:59:00Z,21.2465,-93.4117,9.6,28.4,11111222
Shell,ioos:station:wmo:42864:1,2020-06-01T16:09:00Z,21.2465,-93.4117,9.5,28.4,11111222
Shell,ioos:station:wmo:42864:1,2020-06-01T16:19:00Z,21.2465,-93.4117,9.3,28.4,11111222
Shell,ioos:station:wmo:42864:1,2020-06-01T16:29:00Z,21.2465,-93.4117,9.2,28.2,11111222
Shell,ioos:station:wmo:42864:1,2020-06-01T16:39:00Z,21.2465,-93.4117,9.4,28.1,11111222
Shell,ioos:station:wmo:42864:1,2020-06-01T16:49:00Z,21.2465,-93.4117,9.4,28.3,11111222
Shell,ioos:station:wmo:42864:1,2020-06-01T16:59:00Z,21.2465,-93.4117,9.3,28.2,11111222
Shell,ioos:station:wmo:42864:1,2020-06-01T17:09:00Z,21.2465,-93.4117,9.3,28.1,11111222
Shell,ioos:station:wmo:42864:1,2020-06-01T17:19:00Z,21.2465,-93.4117,9.3,28.1,11111222
Shell,ioos:station:wmo:42864:1,2020-06-01T17:29:00Z,21.2465,-93.4117,9.5,28.2,11111222
Shell,ioos:station:wmo:42864:1,2020-06-01T17:39:00Z,21.2465,-93.4117,9.3,28.1,11111222
Shell,ioos:station:wmo:42864:1,2020-06-01T17:50:00Z,21.2465,-93.4117,9.1,28.0,11111222
Shell,ioos:station:wmo:42864:1,2020-06-01T18:00:00Z,21.2465,-93.4117,9.3,28.0,11111222
Shell,ioos:station:wmo:42864:1,2020-06-01T18:10:00Z,21.2465,-93.4117,9.4,27.9,11111222
Shell,ioos:station:wmo:42864:1,2020-06-01T18:20:00Z,21.2465,-93.4117,9.5,28.1,11111222
Shell,ioos:station:wmo:42864:1,2020-06-01T18:30:00Z,21.2465,-93.4117,9.3,27.8,11111222
Shell,ioos:station:wmo:42864:1,2020-06-01T18:40:00Z,21.2465,-93.4117,9.4,27.9,11111222
Shell,ioos:station:wmo:42864:1,2020-06-01T18:50:00Z,21.2465,-93.4117,9.3,28.2,11111222
Shell,ioos:station:wmo:42864:1,2020-06-01T19:00:00Z,21.2465,-93.4117,9.3,28.1,11111222
Shell,ioos:station:wmo:42864:1,2020-06-01T19:10:00Z,21.2465,-93.4117,9.2,28.2,11111222
Shell,ioos:station:wmo:42864:1,2020-06-01T19:20:00Z,21.2465,-93.4117,9.1,28.0,11111222
Shell,ioos:station:wmo:42864:1,2020-06-01T19:30:00Z,21.2465,-93.4117,9.3,28.3,11111222
Shell,ioos:station:wmo:42864:1,2020-06-01T19:40:00Z,21.2465,-93.4117,9.4,28.4,11111222
Shell,ioos:station:wmo:42864:1,2020-06-01T19:50:00Z,21.2465,-93.4117,9.5,28.3,11111222
Shell,ioos:station:wmo:42864:1,2020-06-01T20:00:00Z,21.2465,-93.4117,9.5,28.4,11111222
Shell,ioos:station:wmo:42864:1,2020-06-01T20:10:00Z,21.2465,-93.4117,9.3,28.4,11111222
Shell,ioos:station:wmo:42864:1,2020-06-01T20:20:00Z,21.2465,-93.4117,9.3,28.4,11111222
Shell,ioos:station:wmo:42864:1,2020-06-01T20:30:00Z,21.2465,-93.4117,9.6,28.4,11111222
Shell,ioos:station:wmo:42864:1,2020-06-01T20:40:00Z,21.2465,-93.4117,9.5,28.4,11111222
Shell,ioos:station:wmo:42864:1,2020-06-01T20:50:00Z,21.2465,-93.4117,9.4,28.4,11111222
Shell,ioos:station:wmo:42864:1,2020-06-01T21:00:00Z,21.2465,-93.4117,9.3,28.4,11111222
Shell,ioos:station:wmo:42864:1,2020-06-01T21:10:00Z,21.2465,-93.4117,9.1,28.4,11111222
Shell,ioos:station:wmo:42864:1,2020-06-01T21:20:00Z,21.2465,-93.4117,9.2,28.4,11111222
Shell,ioos:station:wmo:42864:1,2020-06-01T21:30:00Z,21.2465,-93.4117,9.2,28.5,11111222
Shell,ioos:station:wmo:42864:1,2020-06-01T21:40:00Z,21.2465,-93.4117,9.3,28.5,11111222
Shell,ioos:station:wmo:42864:1,2020-06-01T21:50:00Z,21.2465,-93.4117,9.5,28.4,11111222
Shell,ioos:station:wmo:42864:1,2020-06-01T22:00:00Z,21.2465,-93.4117,9.4,28.4,11111222
Shell,ioos:station:wmo:42864:1,2020-06-01T22:10:00Z,21.2465,-93.4117,9.4,28.2,11111222
Shell,ioos:station:wmo:42864:1,2020-06-01T22:20:00Z,21.2465,-93.4117,9.3,28.3,11111222
Shell,ioos:station:wmo:42864:1,2020-06-01T22:30:00Z,21.2465,-93.4117,9.3,28.3,11111222
Shell,ioos:station:wmo:42864:1,2020-06-01T22:40:00Z,21.2465,-93.4117,9.2,28.4,11111222
Shell,ioos:station:wmo:42864:1,2020-06-01T22:50:00Z,21.2465,-93.4117,9.1,28.4,11111222
Shell,ioos:station:wmo:42864:1,2020-06-01T23:00:00Z,21.2465,-93.4117,9.3,28.4,11111222
Shell,ioos:station:wmo:42864:1,2020-06-01T23:10:00Z,21.2465,-93.4117,9.3,28.4,11111222
Shell,ioos:station:wmo:42864:1,2020-06-01T23:20:00Z,21.2465,-93.4117,9.5,28.4,11111222
Shell,ioos:station:wmo:42864:1,2020-06-01T23:30:00Z,21.2465,-93.4117,9.5,28.4,11111222
Shell,ioos:station:wmo:42864:1,2020-06-01T23:40:00Z,21.2465,-93.4117,9.6,28.4,11111222
Shell,ioos:station:wmo:42864:1,2020-06-01T23:50:00Z,21.2465,-93.4117,9.5,28.4,11111222
Shell,ioos:station:wmo:42864:1,2020-06-02T00:00:00Z,21.2465,-93.4117,9.5,28.4,11111222
Shell,ioos:station:wmo:42864:1,2020-06-02T00:10:00Z,21.2465,-93.4117,9.5,28.4,11111222
Shell,ioos:station:wmo:42864:1,2020-06-02T00:20:00Z,21.2465,-93.4117,9.5,28.4,11111222
Shell,ioos:station:wmo:42864:1,2020-06-02T00:30:00Z,21.2465,-93.4117,9.5,28.4,11111222
Shell,ioos:station:wmo:42864:1,2020-06-02T00:40:00Z,21.2465,-93.4117,9.6,28.4,11111222
Shell,ioos:station:wmo:42864:1,2020-06-02T00:50:00Z,21.2465,-93.4117,9.5,28.4,11111222
Shell,ioos:station:wmo:42864:1,2020-06-02T01:00:00Z,21.2465,-93.4117,9.3,28.4,11111222
Shell,ioos:station:wmo:42864:1,2020-06-02T01:11:00Z,21.2465,-93.4117,9.4,28.4,11111222
Shell,ioos:station:wmo:42864:1,2020-06-02T01:21:00Z,21.2465,-93.4117,9.5,28.4,11111222
Shell,ioos:station:wmo:42864:1,2020-06-02T01:31:00Z,21.2465,-93.4117,9.7,28.4,11111222
Shell,ioos:station:wmo:42864:1,2020-06-02T01:41:00Z,21.2465,-93.4117,9.6,28.3,11111222
Shell,ioos:station:wmo:42864:1,2020-06-02T01:51:00Z,21.2465,-93.4117,9.6,28.3,11111222
Shell,ioos:station:wmo:42864:1,2020-06-02T02:01:00Z,21.2465,-93.4117,9.6,28.3,11111222
Shell,ioos:station:wmo:42864:1,2020-06-02T02:11:00Z,21.2465,-93.4117,9.6,28.3,11111222
Shell,ioos:station:wmo:42864:1,2020-06-02T02:21:00Z,21.2465,-93.4117,9.6,28.3,11111222
Shell,ioos:station:wmo:42864:1,2020-06-02T02:31:00Z,21.2465,-93.4117,9.6,28.3,11111222
Shell,ioos:station:wmo:42864:1,2020-06-02T02:41:00Z,21.2465,-93.4117,9.6,28.3,11111222
Shell,ioos:station:wmo:42864:1,2020-06-02T02:51:00Z,21.2465,-93.4117,9.7,28.3,11111222
Shell,ioos:station:wmo:42864:1,2020-06-02T03:01:00Z,21.2465,-93.4117,9.7,28.3,11111222
Shell,ioos:station:wmo:42864:1,2020-06-02T03:11:00Z,21.2465,-93.4117,9.6,28.3,11111222
Shell,ioos:station:wmo:42864:1,2020-06-02T03:21:00Z,21.2465,-93.4117,9.7,28.3,11111222
Shell,ioos:station:wmo:42864:1,2020-06-02T03:31:00Z,21.2465,-93.4117,9.6,28.3,11111222
Shell,ioos:station:wmo:42864:1,2020-06-02T03:41:00Z,21.2465,-93.4117,9.7,28.3,11111222
Shell,ioos:station:wmo:42864:1,2020-06-02T03:51:00Z,21.2465,-93.4117,9.7,28.3,11111222
Shell,ioos:station:wmo:42864:1,2020-06-02T04:01:00Z,21.2465,-93.4117,9.7,28.3,11111222
Shell,ioos:station:wmo:42864:1,2020-06-02T04:11:00Z,21.2465,-93.4117,9.7,28.3,11111222
Shell,ioos:station:wmo:42864:1,2020-06-02T04:21:00Z,21.2465,-93.4117,9.7,28.3,11111222
Shell,ioos:station:wmo:42864:1,2020-06-02T04:31:00Z,21.2465,-93.4117,9.7,28.3,11111222
Shell,ioos:station:wmo:42864:1,2020-06-02T04:41:00Z,21.2465,-93.4117,9.7,28.3,11111222
Shell,ioos:station:wmo:42864:1,2020-06-02T04:51:00Z,21.2465,-93.4117,9.7,28.3,11111222
Shell,ioos:station:wmo:42864:1,2020-06-02T05:01:00Z,21.2465,-93.4117,9.6,28.3,11111222
Shell,ioos:station:wmo:42864:1,2020-06-02T05:11:00Z,21.2465,-93.4117,9.6,28.3,11111222
Shell,ioos:station:wmo:42864:1,2020-06-02T05:21:00Z,21.2465,-93.4117,9.6,28.3,11111222
Shell,ioos:station:wmo:42864:1,2020-06-02T05:31:00Z,21.2465,-93.4117,9.6,28.3,11111222
Shell,ioos:station:wmo:42864:1,2020-06-02T05:41:00Z,21.2465,-93.4117,9.7,28.3,11111222
Shell,ioos:station:wmo:42864:1,2020-06-02T05:51:00Z,21.2465,-93.4117,9.6,28.3,11111222
Shell,ioos:station:wmo:42864:1,2020-06-02T06:01:00Z,21.2465,-93.4117,9.6,28.3,11111222
Shell,ioos:station:wmo:42864:1,2020-06-02T06:11:00Z,21.2465,-93.4117,9.7,28.3,11111222
Shell,ioos:station:wmo:42864:1,2020-06-02T06:21:00Z,21.2465,-93.4117,9.7,28.3,11111222
Shell,ioos:station:wmo:42864:1,2020-06-02T06:31:00Z,21.2465,-93.4117,9.7,28.3,11111222
Shell,ioos:station:wmo:42864:1,2020-06-02T06:41:00Z,21.2465,-93.4117,9.8,28.3,11111222
Shell,ioos:station:wmo:42864:1,2020-06-02T06:51:00Z,21.2465,-93.4117,9.9,28.2,11111222
Shell,ioos:station:wmo:42864:1,2020-06-02T07:01:00Z,21.2465,-93.4117,9.9,28.2,11111222
Shell,ioos:station:wmo:42864:1,2020-06-02T07:11:00Z,21.2465,-93.4117,9.8,28.2,11111222
Shell,ioos:station:wmo:42864:1,2020-06-02T07:21:00Z,21.2465,-93.4117,9.7,28.2,11111222
Shell,ioos:station:wmo:42864:1,2020-06-02T07:31:00Z,21.2465,-93.4117,9.7,28.3,11111222
Shell,ioos:station:wmo:42864:1,2020-06-02T07:41:00Z,21.2465,-93.4117,9.6,28.2,11111222
Shell,ioos:station:wmo:42864:1,2020-06-02T07:51:00Z,21.2465,-93.4117,9.6,28.3,11111222
Shell,ioos:station:wmo:42864:1,2020-06-02T08:01:00Z,21.2465,-93.4117,9.7,28.3,11111222
Shell,ioos:station:wmo:42864:1,2020-06-02T08:11:00Z,21.2465,-93.4117,9.7,28.3,11111222
Shell,ioos:station:wmo:42864:1,2020-06-02T08:21:00Z,21.2465,-93.4117,9.7,28.3,11111222
Shell,ioos:station:wmo:42864:1,2020-06-02T08:32:00Z,21.2465,-93.4117,9.7,28.3,11111222
Shell,ioos:station:wmo:42864:1,2020-06-02T08:42:00Z,21.2465,-93.4117,9.6,28.3,11111222
Shell,ioos:station:wmo:42864:1,2020-06-02T08:52:00Z,21.2465,-93.4117,9.7,28.3,11111222
Shell,ioos:station:wmo:42864:1,2020-06-02T09:02:00Z,21.2465,-93.4117,9.6,28.3,11111222
Shell,ioos:station:wmo:42864:1,2020-06-02T09:12:00Z,21.2465,-93.4117,9.6,28.3,11111222
Shell,ioos:station:wmo:42864:1,2020-06-02T09:22:00Z,21.2465,-93.4117,9.7,28.3,11111222
Shell,ioos:station:wmo:42864:1,2020-06-02T09:32:00Z,21.2465,-93.4117,9.7,28.2,11111222
Shell,ioos:station:wmo:42864:1,2020-06-02T09:42:00Z,21.2465,-93.4117,9.7,28.2,11111222
Shell,ioos:station:wmo:42864:1,2020-06-02T09:52:00Z,21.2465,-93.4117,9.7,28.2,11111222
Shell,ioos:station:wmo:42864:1,2020-06-02T10:02:00Z,21.2465,-93.4117,9.7,28.2,11111222
Shell,ioos:station:wmo:42864:1,2020-06-02T10:12:00Z,21.2465,-93.4117,9.6,28.2,11111222
Shell,ioos:station:wmo:42864:1,2020-06-02T10:22:00Z,21.2465,-93.4117,9.7,28.2,11111222
Shell,ioos:station:wmo:42864:1,2020-06-02T10:32:00Z,21.2465,-93.4117,9.7,28.2,11111222
Shell,ioos:station:wmo:42864:1,2020-06-02T10:42:00Z,21.2465,-93.4117,9.7,28.2,11111222
Shell,ioos:station:wmo:42864:1,2020-06-02T10:52:00Z,21.2465,-93.4117,9.7,28.2,11111222
Shell,ioos:station:wmo:42864:1,2020-06-02T11:02:00Z,21.2465,-93.4117,9.8,28.2,11111222
Shell,ioos:station:wmo:42864:1,2020-06-02T11:12:00Z,21.2465,-93.4117,9.8,28.2,11111222
Shell,ioos:station:wmo:42864:1,2020-06-02T11:22:00Z,21.2465,-93.4117,9.7,28.2,11111222
Shell,ioos:station:wmo:42864:1,2020-06-02T11:32:00Z,21.2465,-93.4117,9.7,28.2,11111222
Shell,ioos:station:wmo:42864:1,2020-06-02T11:42:00Z,21.2465,-93.4117,9.6,28.2,11111222
Shell,ioos:station:wmo:42864:1,2020-06-02T11:52:00Z,21.2465,-93.4117,9.7,28.2,11111222
Shell,ioos:station:wmo:42864:1,2020-06-02T12:02:00Z,21.2465,-93.4117,9.7,28.2,11111222
Shell,ioos:station:wmo:42864:1,2020-06-02T12:12:00Z,21.2465,-93.4117,9.7,28.2,11111222
Shell,ioos:station:wmo:42864:1,2020-06-02T12:22:00Z,21.2465,-93.4117,9.7,28.2,11111222
Shell,ioos:station:wmo:42864:1,2020-06-02T12:32:00Z,21.2465,-93.4117,9.7,28.2,11111222
Shell,ioos:station:wmo:42864:1,2020-06-02T12:42:00Z,21.2465,-93.4117,9.7,28.2,11111222
Shell,ioos:station:wmo:42864:1,2020-06-02T12:52:00Z,21.2465,-93.4117,9.7,28.2,11111222
Shell,ioos:station:wmo:42864:1,2020-06-02T13:02:00Z,21.2465,-93.4117,9.7,28.2,11111222
Shell,ioos:station:wmo:42864:1,2020-06-02T13:12:00Z,21.2465,-93.4117,9.7,28.2,11111222
Shell,ioos:station:wmo:42864:1,2020-06-02T13:22:00Z,21.2465,-93.4117,9.7,28.2,11111222
Shell,ioos:station:wmo:42864:1,2020-06-02T13:32:00Z,21.2465,-93.4117,9.7,28.2,11111222
Shell,ioos:station:wmo:42864:1,2020-06-02T13:42:00Z,21.2465,-93.4117,9.7,28.2,11111222
Shell,ioos:station:wmo:42864:1,2020-06-02T13:52:00Z,21.2465,-93.4117,9.7,28.1,11111222
Shell,ioos:station:wmo:42864:1,2020-06-02T14:02:00Z,21.2465,-93.4117,9.7,28.1,11111222
Shell,ioos:station:wmo:42864:1,2020-06-02T14:12:00Z,21.2465,-93.4117,9.7,28.1,11111222
Shell,ioos:station:wmo:42864:1,2020-06-02T14:22:00Z,21.2465,-93.4117,9.7,28.1,11111222
Shell,ioos:station:wmo:42864:1,2020-06-02T14:32:00Z,21.2465,-93.4117,9.7,28.1,11111222
Shell,ioos:station:wmo:42864:1,2020-06-02T14:42:00Z,21.2465,-93.4117,9.7,28.1,11111222
Shell,ioos:station:wmo:42864:1,2020-06-02T14:52:00Z,21.2465,-93.4117,9.8,28.1,11111222
Shell,ioos:station:wmo:42864:1,2020-06-02T15:02:00Z,21.2465,-93.4117,9.8,28.1,11111222
Shell,ioos:station:wmo:42864:1,2020-06-02T15:12:00Z,21.2465,-93.4117,9.8,28.1,11111222
Shell,ioos:station:wmo:42864:1,2020-06-02T15:22:00Z,21.2465,-93.4117,9.8,28.1,11111222
Shell,ioos:station:wmo:42864:1,2020-06-02T15:32:00Z,21.2465,-93.4117,9.9,28.1,11111222
Shell,ioos:station:wmo:42864:1,2020-06-02T15:43:00Z,21.2465,-93.4117,9.8,28.1,11111222
Shell,ioos:station:wmo:42864:1,2020-06-02T15:53:00Z,21.2465,-93.4117,9.7,28.1,11111222
Shell,ioos:station:wmo:42864:1,2020-06-02T16:03:00Z,21.2465,-93.4117,9.7,28.1,11111222
Shell,ioos:station:wmo:42864:1,2020-06-02T16:13:00Z,21.2465,-93.4117,9.7,28.1,11111222
Shell,ioos:station:wmo:42864:1,2020-06-02T16:23:00Z,21.2465,-93.4117,9.7,28.1,11111222
Shell,ioos:station:wmo:42864:1,2020-06-02T16:33:00Z,21.2465,-93.4117,9.7,28.1,11111222
Shell,ioos:station:wmo:42864:1,2020-06-02T16:43:00Z,21.2465,-93.4117,9.7,28.1,11111222
Shell,ioos:station:wmo:42864:1,2020-06-02T16:53:00Z,21.2465,-93.4117,9.7,28.1,11111222
Shell,ioos:station:wmo:42864:1,2020-06-02T17:03:00Z,21.2465,-93.4117,9.7,28.1,11111222
Shell,ioos:station:wmo:42864:1,2020-06-02T17:13:00Z,21.2465,-93.4117,9.7,28.1,11111222
Shell,ioos:station:wmo:42864:1,2020-06-02T17:23:00Z,21.2465,-93.4117,9.7,28.1,11111222
Shell,ioos:station:wmo:42864:1,2020-06-02T17:33:00Z,21.2465,-93.4117,9.7,28.1,11111222
Shell,ioos:station:wmo:42864:1,2020-06-02T17:43:00Z,21.2465,-93.4117,9.7,28.1,11111222
Shell,ioos:station:wmo:42864:1,2020-06-02T17:53:00Z,21.2465,-93.4117,9.7,28.1,11111222
Shell,ioos:station:wmo:42864:1,2020-06-02T18:03:00Z,21.2465,-93.4117,9.7,28.2,11111222
Shell,ioos:station:wmo:42864:1,2020-06-02T18:13:00Z,21.2465,-93.4117,9.7,28.2,11111222
Shell,ioos:station:wmo:42864:1,2020-06-14T03:38:00Z,21.2465,-93.4117,8.1,28.0,11111222
Shell,ioos:station:wmo:42864:1,2020-06-14T03:48:00Z,21.2465,-93.4117,8.1,28.1,11111222
Shell,ioos:station:wmo:42864:1,2020-06-14T03:58:00Z,21.2465,-93.4117,8.1,28.0,11111222
Shell,ioos:station:wmo:42864:1,2020-06-14T04:08:00Z,21.2465,-93.4117,8.1,28.0,11111222
Shell,ioos:station:wmo:42864:1,2020-06-14T04:18:00Z,21.2465,-93.4117,8.2,28.0,11111222
Shell,ioos:station:wmo:42864:1,2020-06-14T04:28:00Z,21.2465,-93.4117,8.3,28.1,11111222
Shell,ioos:station:wmo:42864:1,2020-06-14T04:38:00Z,21.2465,-93.4117,8.3,28.1,11111222
Shell,ioos:station:wmo:42864:1,2020-06-14T04:48:00Z,21.2465,-93.4117,8.3,28.1,11111222
Shell,ioos:station:wmo:42864:1,2020-06-14T04:58:00Z,21.2465,-93.4117,8.3,28.1,11111222
Shell,ioos:station:wmo:42864:1,2020-06-14T05:08:00Z,21.2465,-93.4117,8.3,28.0,11111222
Shell,ioos:station:wmo:42864:1,2020-06-14T05:18:00Z,21.2465,-93.4117,8.3,28.0,11111222
Shell,ioos:station:wmo:42864:1,2020-06-14T05:28:00Z,21.2465,-93.4117,8.3,28.0,11111222
Shell,ioos:station:wmo:42864:1,2020-06-14T05:38:00Z,21.2465,-93.4117,8.4,28.0,11111222
Shell,ioos:station:wmo:42864:1,2020-06-14T05:48:00Z,21.2465,-93.4117,8.4,28.1,11111222
Shell,ioos:station:wmo:42864:1,2020-06-14T05:58:00Z,21.2465,-93.4117,8.3,28.1,11111222
Shell,ioos:station:wmo:42864:1,2020-06-14T06:08:00Z,21.2465,-93.4117,8.3,28.1,11111222
Shell,ioos:station:wmo:42864:1,2020-06-14T06:18:00Z,21.2465,-93.4117,8.3,28.1,11111222
Shell,ioos:station:wmo:42864:1,2020-06-14T06:28:00Z,21.2465,-93.4117,8.3,28.1,11111222